Time,TemperatureF,DewpointF,PressureIn,WindDirection,WindDirectionDegrees,WindSpeedMPH,WindSpeedGustMPH,Humidity,HourlyPrecipIn,Conditions,Clouds,dailyrainin,SoftwareType,DateUTC
2014-01-02 00:01:00,48.1,42.5,30.12,NNE,26,11.0,15.0,81,0.00,,SKC,0.00,VWS V14.01,2014-01-02 06:01:00,
2014-01-02 00:06:00,48.1,41.9,30.12,NNE,19,19.0,19.0,79,0.00,,SKC,0.00,VWS V14.01,2014-01-02 06:06:00,
2014-01-02 00:11:00,48.1,41.2,30.13,NNE,15,9.0,10.0,77,0.00,,SKC,0.00,VWS V14.01,2014-01-02 06:11:00,
2014-01-02 00:16:00,47.8,40.3,30.13,NE,46,15.0,15.0,75,0.00,,SKC,0.00,VWS V14.01,2014-01-02 06:16:00,
2014-01-02 00:21:00,47.6,39.4,30.13,NNE,18,14.0,14.0,73,0.00,,SKC,0.00,VWS V14.01,2014-01-02 06:21:00,
2014-01-02 00:26:00,47.3,38.4,30.13,North,355,15.0,16.0,71,0.00,,SKC,0.00,VWS V14.01,2014-01-02 06:26:00,
2014-01-02 00:31:00,47.0,37.4,30.14,North,351,14.0,14.0,69,0.00,,SKC,0.00,VWS V14.01,2014-01-02 06:31:00,
2014-01-02 00:36:00,46.7,36.7,30.14,North,355,10.0,10.0,68,0.00,,SKC,0.00,VWS V14.01,2014-01-02 06:36:00,
2014-01-02 00:41:00,46.3,35.2,30.14,NNE,14,15.0,21.0,65,0.00,,SKC,0.00,VWS V14.01,2014-01-02 06:41:00,
2014-01-02 00:46:00,46.2,35.1,30.15,North,5,11.0,15.0,65,0.00,,SKC,0.00,VWS V14.01,2014-01-02 06:46:00,
2014-01-02 00:51:00,45.9,34.8,30.15,NE,37,9.0,10.0,65,0.00,,SKC,0.00,VWS V14.01,2014-01-02 06:51:00,
2014-01-02 00:56:00,45.6,34.5,30.16,North,355,8.0,15.0,65,0.00,,SKC,0.00,VWS V14.01,2014-01-02 06:56:00,
2014-01-02 01:01:00,45.3,34.2,30.16,NNW,348,9.0,12.0,65,0.00,,SKC,0.00,VWS V14.01,2014-01-02 07:01:00,
2014-01-02 01:06:00,45.1,34.0,30.16,North,11,12.0,15.0,65,0.00,,SKC,0.00,VWS V14.01,2014-01-02 07:06:00,
2014-01-02 01:07:00,45.1,34.0,30.16,North,355,9.0,12.0,65,0.00,,SKC,0.00,VWS V14.01,2014-01-02 07:07:00,
2014-01-02 01:12:00,44.8,33.8,30.17,NNW,348,16.0,16.0,65,0.00,,SKC,0.00,VWS V14.01,2014-01-02 07:12:00,
2014-01-02 01:17:00,44.6,33.6,30.17,NNE,14,6.0,14.0,65,0.00,,SKC,0.00,VWS V14.01,2014-01-02 07:17:00,
2014-01-02 01:22:00,44.3,33.7,30.17,North,355,12.0,17.0,66,0.00,,SKC,0.00,VWS V14.01,2014-01-02 07:22:00,
2014-01-02 01:27:00,44.0,33.8,30.18,NW,316,11.0,17.0,67,0.00,,SKC,0.00,VWS V14.01,2014-01-02 07:27:00,
2014-01-02 01:32:00,43.5,33.3,30.18,NNW,341,16.0,17.0,67,0.00,,SKC,0.00,VWS V14.01,2014-01-02 07:32:00,
2014-01-02 01:37:00,42.7,32.5,30.18,NNE,25,18.0,21.0,67,0.00,,SKC,0.00,VWS V14.01,2014-01-02 07:37:00,
2014-01-02 01:42:00,42.0,31.9,30.19,NNW,334,11.0,17.0,67,0.00,,SKC,0.00,VWS V14.01,2014-01-02 07:42:00,
2014-01-02 01:47:00,41.5,31.7,30.19,North,355,11.0,15.0,68,0.00,,SKC,0.00,VWS V14.01,2014-01-02 07:47:00,
2014-01-02 01:52:00,41.1,31.4,30.20,NNW,339,10.0,19.0,68,0.00,,SKC,0.00,VWS V14.01,2014-01-02 07:52:00,
2014-01-02 01:57:00,40.8,31.4,30.20,NNW,342,6.0,14.0,69,0.00,,SKC,0.00,VWS V14.01,2014-01-02 07:57:00,
2014-01-02 02:02:00,40.5,31.1,30.20,NW,313,17.0,18.0,69,0.00,,SKC,0.00,VWS V14.01,2014-01-02 08:02:00,
2014-01-02 02:07:00,40.1,30.8,30.20,North,9,9.0,15.0,69,0.00,,SKC,0.00,VWS V14.01,2014-01-02 08:07:00,
2014-01-02 02:12:00,39.7,30.4,30.21,North,360,20.0,26.0,69,0.00,,SKC,0.00,VWS V14.01,2014-01-02 08:12:00,
2014-01-02 02:17:00,39.2,29.9,30.21,North,360,10.0,17.0,69,0.00,,SKC,0.00,VWS V14.01,2014-01-02 08:17:00,
2014-01-02 02:22:00,38.8,29.9,30.21,NNE,15,16.0,22.0,70,0.00,,SKC,0.00,VWS V14.01,2014-01-02 08:22:00,
2014-01-02 02:27:00,38.6,29.7,30.21,North,5,12.0,19.0,70,0.00,,SKC,0.00,VWS V14.01,2014-01-02 08:27:00,
2014-01-02 02:32:00,38.4,29.5,30.22,North,9,11.0,18.0,70,0.00,,SKC,0.00,VWS V14.01,2014-01-02 08:32:00,
2014-01-02 02:37:00,38.2,29.3,30.22,NNE,14,17.0,21.0,70,0.00,,SKC,0.00,VWS V14.01,2014-01-02 08:37:00,
2014-01-02 02:42:00,38.0,29.5,30.22,NW,307,12.0,16.0,71,0.00,,SKC,0.00,VWS V14.01,2014-01-02 08:42:00,
2014-01-02 02:47:00,37.6,29.1,30.23,North,355,9.0,17.0,71,0.00,,SKC,0.00,VWS V14.01,2014-01-02 08:47:00,
2014-01-02 02:52:00,37.1,28.9,30.23,North,5,4.0,12.0,72,0.00,,SKC,0.00,VWS V14.01,2014-01-02 08:52:00,
2014-01-02 02:57:00,36.7,28.9,30.23,NNW,344,17.0,17.0,73,0.00,,SKC,0.00,VWS V14.01,2014-01-02 08:57:00,
2014-01-02 03:02:00,36.2,28.1,30.24,NNW,333,8.0,18.0,72,0.00,,SKC,0.00,VWS V14.01,2014-01-02 09:02:00,
2014-01-02 03:07:00,35.8,27.7,30.24,North,5,17.0,17.0,72,0.00,,SKC,0.00,VWS V14.01,2014-01-02 09:07:00,
2014-01-02 03:12:00,35.5,27.4,30.24,North,360,16.0,16.0,72,0.00,,SKC,0.00,VWS V14.01,2014-01-02 09:12:00,
2014-01-02 03:17:00,35.3,26.9,30.24,NNW,345,10.0,17.0,71,0.00,,SKC,0.00,VWS V14.01,2014-01-02 09:17:00,
2014-01-02 03:22:00,35.2,26.8,30.25,NNE,22,9.0,15.0,71,0.00,,SKC,0.00,VWS V14.01,2014-01-02 09:22:00,
2014-01-02 03:27:00,35.1,26.7,30.25,North,5,11.0,14.0,71,0.00,,SKC,0.00,VWS V14.01,2014-01-02 09:27:00,
2014-01-02 03:32:00,35.0,26.6,30.25,NNE,22,13.0,22.0,71,0.00,,SKC,0.00,VWS V14.01,2014-01-02 09:32:00,
2014-01-02 03:37:00,34.7,26.3,30.26,NNW,345,6.0,16.0,71,0.00,,SKC,0.00,VWS V14.01,2014-01-02 09:37:00,
2014-01-02 03:42:00,34.4,26.0,30.26,NNE,13,7.0,15.0,71,0.00,,SKC,0.00,VWS V14.01,2014-01-02 09:42:00,
2014-01-02 03:47:00,34.4,26.3,30.26,NNE,19,14.0,16.0,72,0.00,,SKC,0.00,VWS V14.01,2014-01-02 09:47:00,
2014-01-02 03:52:00,34.2,26.1,30.26,North,349,4.0,18.0,72,0.00,,SKC,0.00,VWS V14.01,2014-01-02 09:52:00,
2014-01-02 03:57:00,34.0,25.9,30.26,NNE,13,12.0,19.0,72,0.00,,SKC,0.00,VWS V14.01,2014-01-02 09:57:00,
2014-01-02 04:02:00,33.9,25.8,30.27,North,360,10.0,15.0,72,0.00,,SKC,0.00,VWS V14.01,2014-01-02 10:02:00,
2014-01-02 04:07:00,33.7,25.6,30.26,North,9,18.0,18.0,72,0.00,,SKC,0.00,VWS V14.01,2014-01-02 10:07:00,
2014-01-02 04:12:00,33.5,25.8,30.27,North,10,10.0,15.0,73,0.00,,SKC,0.00,VWS V14.01,2014-01-02 10:12:00,
2014-01-02 04:17:00,33.2,25.5,30.27,North,351,11.0,15.0,73,0.00,,SKC,0.00,VWS V14.01,2014-01-02 10:17:00,
2014-01-02 04:22:00,32.9,25.5,30.27,North,349,15.0,21.0,74,0.00,,SKC,0.00,VWS V14.01,2014-01-02 10:22:00,
2014-01-02 04:27:00,32.7,25.3,30.27,NNE,17,11.0,15.0,74,0.00,,SKC,0.00,VWS V14.01,2014-01-02 10:27:00,
2014-01-02 04:32:00,32.5,25.5,30.27,North,5,10.0,10.0,75,0.00,,SKC,0.00,VWS V14.01,2014-01-02 10:32:00,
2014-01-02 04:37:00,32.2,25.2,30.28,North,355,10.0,14.0,75,0.00,,SKC,0.00,VWS V14.01,2014-01-02 10:37:00,
2014-01-02 04:42:00,32.0,25.0,30.28,NNE,22,10.0,19.0,75,0.00,,SKC,0.00,VWS V14.01,2014-01-02 10:42:00,
2014-01-02 04:47:00,31.9,24.9,30.28,North,10,13.0,23.0,75,0.00,,SKC,0.00,VWS V14.01,2014-01-02 10:47:00,
2014-01-02 04:52:00,31.9,24.9,30.28,NNE,20,7.0,15.0,75,0.00,,SKC,0.00,VWS V14.01,2014-01-02 10:52:00,
2014-01-02 04:57:00,31.7,24.7,30.28,NNW,340,15.0,15.0,75,0.00,,SKC,0.00,VWS V14.01,2014-01-02 10:57:00,
2014-01-02 05:02:00,31.6,24.6,30.29,NNW,345,10.0,16.0,75,0.00,,SKC,0.00,VWS V14.01,2014-01-02 11:02:00,
2014-01-02 05:07:00,31.4,24.4,30.29,NNW,330,5.0,12.0,75,0.00,,SKC,0.00,VWS V14.01,2014-01-02 11:07:00,
2014-01-02 05:12:00,31.1,24.4,30.29,NNE,19,15.0,15.0,76,0.00,,SKC,0.00,VWS V14.01,2014-01-02 11:12:00,
2014-01-02 05:17:00,30.8,24.1,30.29,North,360,15.0,16.0,76,0.00,,SKC,0.00,VWS V14.01,2014-01-02 11:17:00,
2014-01-02 05:22:00,30.7,24.0,30.29,NNE,18,6.0,18.0,76,0.00,,SKC,0.00,VWS V14.01,2014-01-02 11:22:00,
2014-01-02 05:27:00,30.5,23.9,30.30,NNW,342,8.0,17.0,76,0.00,,SKC,0.00,VWS V14.01,2014-01-02 11:27:00,
2014-01-02 05:32:00,30.3,24.0,30.30,North,9,7.0,15.0,77,0.00,,SKC,0.00,VWS V14.01,2014-01-02 11:32:00,
2014-01-02 05:37:00,30.1,23.8,30.30,NNE,24,10.0,15.0,77,0.00,,SKC,0.00,VWS V14.01,2014-01-02 11:37:00,
2014-01-02 05:42:00,30.1,23.8,30.31,NNW,344,10.0,16.0,77,0.00,,SKC,0.00,VWS V14.01,2014-01-02 11:42:00,
2014-01-02 05:47:00,29.9,23.6,30.31,North,360,11.0,13.0,77,0.00,,SKC,0.00,VWS V14.01,2014-01-02 11:47:00,
2014-01-02 05:52:00,29.8,23.5,30.31,North,5,9.0,14.0,77,0.00,,SKC,0.00,VWS V14.01,2014-01-02 11:52:00,
2014-01-02 05:57:00,29.7,23.4,30.32,North,360,10.0,10.0,77,0.00,,SKC,0.00,VWS V14.01,2014-01-02 11:57:00,
2014-01-02 06:02:00,29.6,23.3,30.32,North,10,7.0,12.0,77,0.00,,SKC,0.00,VWS V14.01,2014-01-02 12:02:00,
2014-01-02 06:07:00,29.5,23.5,30.32,NNW,338,8.0,9.0,78,0.00,,SKC,0.00,VWS V14.01,2014-01-02 12:07:00,
2014-01-02 06:12:00,29.4,23.4,30.32,North,355,6.0,12.0,78,0.00,,SKC,0.00,VWS V14.01,2014-01-02 12:12:00,
2014-01-02 06:17:00,29.2,23.2,30.32,North,360,7.0,12.0,78,0.00,,SKC,0.00,VWS V14.01,2014-01-02 12:17:00,
2014-01-02 06:22:00,28.9,22.9,30.32,NNE,18,10.0,12.0,78,0.00,,SKC,0.00,VWS V14.01,2014-01-02 12:22:00,
2014-01-02 06:27:00,28.8,23.1,30.33,North,10,6.0,13.0,79,0.00,,SKC,0.00,VWS V14.01,2014-01-02 12:27:00,
2014-01-02 06:32:00,28.7,23.0,30.33,NNW,347,9.0,17.0,79,0.00,,SKC,0.00,VWS V14.01,2014-01-02 12:32:00,
2014-01-02 06:37:00,28.7,23.0,30.33,North,360,6.0,10.0,79,0.00,,SKC,0.00,VWS V14.01,2014-01-02 12:37:00,
2014-01-02 06:42:00,28.6,22.9,30.33,NNW,327,10.0,11.0,79,0.00,,SKC,0.00,VWS V14.01,2014-01-02 12:42:00,
2014-01-02 06:47:00,28.5,22.8,30.33,North,5,5.0,12.0,79,0.00,,SKC,0.00,VWS V14.01,2014-01-02 12:47:00,
2014-01-02 06:52:00,28.4,22.7,30.33,NNW,338,10.0,14.0,79,0.00,,SKC,0.00,VWS V14.01,2014-01-02 12:52:00,
2014-01-02 06:57:00,28.4,22.7,30.33,North,355,7.0,13.0,79,0.00,,SKC,0.00,VWS V14.01,2014-01-02 12:57:00,
2014-01-02 07:02:00,28.3,22.6,30.33,NNW,346,13.0,13.0,79,0.00,,SKC,0.00,VWS V14.01,2014-01-02 13:02:00,
2014-01-02 07:07:00,28.2,22.8,30.33,North,351,15.0,18.0,80,0.00,,SKC,0.00,VWS V14.01,2014-01-02 13:07:00,
2014-01-02 07:12:00,28.1,22.4,30.33,NNE,22,7.0,13.0,79,0.00,,SKC,0.00,VWS V14.01,2014-01-02 13:12:00,
2014-01-02 07:17:00,27.9,22.2,30.33,North,11,6.0,11.0,79,0.00,,SKC,0.00,VWS V14.01,2014-01-02 13:17:00,
2014-01-02 07:22:00,27.8,22.4,30.33,NW,325,14.0,14.0,80,0.00,,SKC,0.00,VWS V14.01,2014-01-02 13:22:00,
2014-01-02 07:27:00,27.5,22.1,30.34,NNE,13,4.0,7.0,80,0.00,,SKC,0.00,VWS V14.01,2014-01-02 13:27:00,
2014-01-02 07:32:00,27.3,22.0,30.34,NNW,328,4.0,14.0,80,0.00,,SKC,0.00,VWS V14.01,2014-01-02 13:32:00,
2014-01-02 07:37:00,27.2,21.9,30.34,NNW,344,5.0,9.0,80,0.00,,SKC,0.00,VWS V14.01,2014-01-02 13:37:00,
2014-01-02 07:42:00,27.2,21.9,30.35,North,355,5.0,17.0,80,0.00,,SKC,0.00,VWS V14.01,2014-01-02 13:42:00,
2014-01-02 07:47:00,27.1,21.8,30.35,NNE,22,9.0,9.0,80,0.00,,SKC,0.00,VWS V14.01,2014-01-02 13:47:00,
2014-01-02 07:52:00,27.0,22.0,30.35,North,11,9.0,13.0,81,0.00,,SKC,0.00,VWS V14.01,2014-01-02 13:52:00,
2014-01-02 07:57:00,26.9,21.9,30.36,NNE,14,6.0,12.0,81,0.00,,SKC,0.00,VWS V14.01,2014-01-02 13:57:00,
2014-01-02 08:02:00,26.9,21.9,30.36,NW,316,9.0,13.0,81,0.00,,SKC,0.00,VWS V14.01,2014-01-02 14:02:00,
2014-01-02 08:07:00,26.9,21.9,30.36,North,5,7.0,9.0,81,0.00,,SKC,0.00,VWS V14.01,2014-01-02 14:07:00,
2014-01-02 08:12:00,27.0,22.0,30.37,North,360,10.0,11.0,81,0.00,,SKC,0.00,VWS V14.01,2014-01-02 14:12:00,
2014-01-02 08:17:00,27.0,22.0,30.37,NNW,333,5.0,7.0,81,0.00,,SKC,0.00,VWS V14.01,2014-01-02 14:17:00,
2014-01-02 08:22:00,27.0,22.0,30.37,NW,321,6.0,12.0,81,0.00,,SKC,0.00,VWS V14.01,2014-01-02 14:22:00,
2014-01-02 08:27:00,27.1,21.8,30.38,NNW,338,8.0,15.0,80,0.00,,SKC,0.00,VWS V14.01,2014-01-02 14:27:00,
2014-01-02 08:32:00,27.3,22.0,30.38,North,360,7.0,12.0,80,0.00,,SKC,0.00,VWS V14.01,2014-01-02 14:32:00,
2014-01-02 08:37:00,27.4,22.0,30.39,North,360,9.0,13.0,80,0.00,,SKC,0.00,VWS V14.01,2014-01-02 14:37:00,
2014-01-02 08:42:00,27.5,21.9,30.39,North,355,9.0,14.0,79,0.00,,SKC,0.00,VWS V14.01,2014-01-02 14:42:00,
2014-01-02 08:47:00,27.7,22.0,30.39,North,360,11.0,12.0,79,0.00,,SKC,0.00,VWS V14.01,2014-01-02 14:47:00,
2014-01-02 08:52:00,28.1,22.1,30.39,NNW,337,9.0,16.0,78,0.00,,SKC,0.00,VWS V14.01,2014-01-02 14:52:00,
2014-01-02 08:57:00,28.3,22.0,30.40,NNE,19,7.0,15.0,77,0.00,,SKC,0.00,VWS V14.01,2014-01-02 14:57:00,
2014-01-02 09:02:00,28.6,22.3,30.40,NNE,24,13.0,13.0,77,0.00,,SKC,0.00,VWS V14.01,2014-01-02 15:02:00,
2014-01-02 09:07:00,28.9,22.3,30.40,NNE,30,12.0,17.0,76,0.00,,SKC,0.00,VWS V14.01,2014-01-02 15:07:00,
2014-01-02 09:12:00,29.3,22.7,30.40,NNW,338,9.0,13.0,76,0.00,,SKC,0.00,VWS V14.01,2014-01-02 15:12:00,
2014-01-02 09:17:00,29.6,22.7,30.41,NW,321,5.0,11.0,75,0.00,,SKC,0.00,VWS V14.01,2014-01-02 15:17:00,
2014-01-02 09:22:00,29.7,22.8,30.41,North,350,13.0,15.0,75,0.00,,SKC,0.00,VWS V14.01,2014-01-02 15:22:00,
2014-01-02 09:27:00,29.9,22.6,30.41,North,355,13.0,25.0,74,0.00,,SKC,0.00,VWS V14.01,2014-01-02 15:27:00,
2014-01-02 09:32:00,30.3,23.0,30.41,North,360,9.0,14.0,74,0.00,,SKC,0.00,VWS V14.01,2014-01-02 15:32:00,
2014-01-02 09:37:00,30.8,23.2,30.41,NW,325,9.0,13.0,73,0.00,,SKC,0.00,VWS V14.01,2014-01-02 15:37:00,
2014-01-02 09:42:00,31.2,23.2,30.41,North,349,9.0,16.0,72,0.00,,SKC,0.00,VWS V14.01,2014-01-02 15:42:00,
2014-01-02 09:47:00,31.4,23.4,30.42,North,360,10.0,17.0,72,0.00,,SKC,0.00,VWS V14.01,2014-01-02 15:47:00,
2014-01-02 09:52:00,31.6,23.3,30.42,NNE,15,8.0,13.0,71,0.00,,SKC,0.00,VWS V14.01,2014-01-02 15:52:00,
2014-01-02 09:57:00,31.9,23.6,30.42,NNE,30,10.0,15.0,71,0.00,,SKC,0.00,VWS V14.01,2014-01-02 15:57:00,
2014-01-02 10:02:00,32.3,23.6,30.42,NNW,345,11.0,15.0,70,0.00,,SKC,0.00,VWS V14.01,2014-01-02 16:02:00,
2014-01-02 10:07:00,32.4,23.7,30.42,North,355,12.0,13.0,70,0.00,,SKC,0.00,VWS V14.01,2014-01-02 16:07:00,
2014-01-02 10:12:00,32.9,24.2,30.42,NNW,336,7.0,13.0,70,0.00,,SKC,0.00,VWS V14.01,2014-01-02 16:12:00,
2014-01-02 10:17:00,33.1,24.0,30.42,NNE,28,6.0,10.0,69,0.00,,SKC,0.00,VWS V14.01,2014-01-02 16:17:00,
2014-01-02 10:22:00,33.5,24.4,30.42,NW,310,4.0,11.0,69,0.00,,SKC,0.00,VWS V14.01,2014-01-02 16:22:00,
2014-01-02 10:27:00,33.8,24.4,30.43,North,350,9.0,13.0,68,0.00,,SKC,0.00,VWS V14.01,2014-01-02 16:27:00,
2014-01-02 10:32:00,33.7,23.9,30.42,North,355,10.0,16.0,67,0.00,,SKC,0.00,VWS V14.01,2014-01-02 16:32:00,
2014-01-02 10:37:00,34.1,24.7,30.42,NNW,333,4.0,8.0,68,0.00,,SKC,0.00,VWS V14.01,2014-01-02 16:37:00,
2014-01-02 10:42:00,34.7,24.9,30.43,North,360,10.0,10.0,67,0.00,,SKC,0.00,VWS V14.01,2014-01-02 16:42:00,
2014-01-02 10:47:00,35.2,25.0,30.42,North,5,13.0,13.0,66,0.00,,SKC,0.00,VWS V14.01,2014-01-02 16:47:00,
2014-01-02 10:52:00,35.3,24.7,30.43,North,351,6.0,13.0,65,0.00,,SKC,0.00,VWS V14.01,2014-01-02 16:52:00,
2014-01-02 10:57:00,34.9,24.0,30.43,North,360,6.0,11.0,64,0.00,,SKC,0.00,VWS V14.01,2014-01-02 16:57:00,
2014-01-02 11:02:00,35.3,24.4,30.43,NNW,337,12.0,14.0,64,0.00,,SKC,0.00,VWS V14.01,2014-01-02 17:02:00,
2014-01-02 11:07:00,35.6,24.3,30.43,NNW,339,15.0,16.0,63,0.00,,SKC,0.00,VWS V14.01,2014-01-02 17:07:00,
2014-01-02 11:12:00,36.0,24.3,30.43,NNE,13,10.0,15.0,62,0.00,,SKC,0.00,VWS V14.01,2014-01-02 17:12:00,
2014-01-02 11:17:00,36.5,24.7,30.43,North,360,8.0,11.0,62,0.00,,SKC,0.00,VWS V14.01,2014-01-02 17:17:00,
2014-01-02 11:22:00,36.8,24.2,30.42,NNW,345,7.0,15.0,60,0.00,,SKC,0.00,VWS V14.01,2014-01-02 17:22:00,
2014-01-02 11:27:00,37.0,24.8,30.43,North,350,5.0,13.0,61,0.00,,SKC,0.00,VWS V14.01,2014-01-02 17:27:00,
2014-01-02 11:32:00,37.4,24.4,30.42,North,355,8.0,14.0,59,0.00,,SKC,0.00,VWS V14.01,2014-01-02 17:32:00,
2014-01-02 11:37:00,37.7,24.3,30.42,NW,326,4.0,12.0,58,0.00,,SKC,0.00,VWS V14.01,2014-01-02 17:37:00,
2014-01-02 11:42:00,37.9,24.5,30.42,NW,326,12.0,12.0,58,0.00,,SKC,0.00,VWS V14.01,2014-01-02 17:42:00,
2014-01-02 11:47:00,38.1,24.2,30.42,North,360,9.0,14.0,57,0.00,,SKC,0.00,VWS V14.01,2014-01-02 17:47:00,
2014-01-02 11:52:00,38.2,24.3,30.42,North,360,14.0,14.0,57,0.00,,SKC,0.00,VWS V14.01,2014-01-02 17:52:00,
2014-01-02 11:57:00,38.7,23.9,30.42,NNW,327,10.0,13.0,55,0.00,,SKC,0.00,VWS V14.01,2014-01-02 17:57:00,
2014-01-02 12:02:00,38.8,24.5,30.42,NNE,17,6.0,12.0,56,0.00,,SKC,0.00,VWS V14.01,2014-01-02 18:02:00,
2014-01-02 12:07:00,39.1,24.3,30.41,North,5,9.0,14.0,55,0.00,,SKC,0.00,VWS V14.01,2014-01-02 18:07:00,
2014-01-02 12:12:00,39.3,24.5,30.41,NNW,333,9.0,14.0,55,0.00,,SKC,0.00,VWS V14.01,2014-01-02 18:12:00,
2014-01-02 12:17:00,39.9,25.1,30.41,NNW,327,9.0,10.0,55,0.00,,SKC,0.00,VWS V14.01,2014-01-02 18:17:00,
2014-01-02 12:22:00,40.3,25.0,30.41,NNW,329,3.0,12.0,54,0.00,,SKC,0.00,VWS V14.01,2014-01-02 18:22:00,
2014-01-02 12:27:00,40.2,24.9,30.41,NNW,346,13.0,13.0,54,0.00,,SKC,0.00,VWS V14.01,2014-01-02 18:27:00,
2014-01-02 12:32:00,40.5,24.7,30.41,NNW,345,3.0,12.0,53,0.00,,SKC,0.00,VWS V14.01,2014-01-02 18:32:00,
2014-01-02 12:37:00,40.4,24.6,30.41,NW,314,6.0,12.0,53,0.00,,SKC,0.00,VWS V14.01,2014-01-02 18:37:00,
2014-01-02 12:42:00,41.0,24.7,30.41,North,355,10.0,13.0,52,0.00,,SKC,0.00,VWS V14.01,2014-01-02 18:42:00,
2014-01-02 12:47:00,41.3,25.0,30.41,NW,321,6.0,15.0,52,0.00,,SKC,0.00,VWS V14.01,2014-01-02 18:47:00,
2014-01-02 12:52:00,41.6,24.8,30.40,North,355,9.0,12.0,51,0.00,,SKC,0.00,VWS V14.01,2014-01-02 18:52:00,
2014-01-02 12:57:00,42.1,24.8,30.40,North,9,5.0,7.0,50,0.00,,SKC,0.00,VWS V14.01,2014-01-02 18:57:00,
2014-01-02 13:02:00,42.7,25.4,30.40,North,360,6.0,10.0,50,0.00,,SKC,0.00,VWS V14.01,2014-01-02 19:02:00,
2014-01-02 13:07:00,42.7,24.4,30.40,North,355,4.0,10.0,48,0.00,,SKC,0.00,VWS V14.01,2014-01-02 19:07:00,
2014-01-02 13:12:00,42.9,25.1,30.40,NNW,348,8.0,9.0,49,0.00,,SKC,0.00,VWS V14.01,2014-01-02 19:12:00,
2014-01-02 13:17:00,43.2,25.4,30.40,NNW,348,7.0,10.0,49,0.00,,SKC,0.00,VWS V14.01,2014-01-02 19:17:00,
2014-01-02 13:22:00,43.0,25.2,30.40,NNW,343,12.0,12.0,49,0.00,,SKC,0.00,VWS V14.01,2014-01-02 19:22:00,
2014-01-02 13:27:00,43.1,25.3,30.40,NNE,22,9.0,11.0,49,0.00,,SKC,0.00,VWS V14.01,2014-01-02 19:27:00,
2014-01-02 13:32:00,43.7,25.3,30.39,North,11,11.0,15.0,48,0.00,,SKC,0.00,VWS V14.01,2014-01-02 19:32:00,
2014-01-02 13:37:00,44.0,25.6,30.39,NW,314,5.0,10.0,48,0.00,,SKC,0.00,VWS V14.01,2014-01-02 19:37:00,
2014-01-02 13:42:00,44.3,25.9,30.39,NNW,328,9.0,11.0,48,0.00,,SKC,0.00,VWS V14.01,2014-01-02 19:42:00,
2014-01-02 13:47:00,44.3,25.4,30.39,North,10,10.0,11.0,47,0.00,,SKC,0.00,VWS V14.01,2014-01-02 19:47:00,
2014-01-02 13:52:00,44.2,25.8,30.39,North,360,6.0,9.0,48,0.00,,SKC,0.00,VWS V14.01,2014-01-02 19:52:00,
2014-01-02 13:57:00,44.6,26.1,30.39,North,5,11.0,13.0,48,0.00,,SKC,0.00,VWS V14.01,2014-01-02 19:57:00,
2014-01-02 14:02:00,44.4,25.5,30.39,NW,313,6.0,11.0,47,0.00,,SKC,0.00,VWS V14.01,2014-01-02 20:02:00,
2014-01-02 14:07:00,44.5,26.0,30.39,NNW,346,6.0,10.0,48,0.00,,SKC,0.00,VWS V14.01,2014-01-02 20:07:00,
2014-01-02 14:12:00,45.0,26.0,30.39,North,355,7.0,10.0,47,0.00,,SKC,0.00,VWS V14.01,2014-01-02 20:12:00,
2014-01-02 14:17:00,45.1,26.1,30.39,NNW,344,12.0,12.0,47,0.00,,SKC,0.00,VWS V14.01,2014-01-02 20:17:00,
2014-01-02 14:22:00,45.5,25.9,30.39,NNW,333,4.0,7.0,46,0.00,,SKC,0.00,VWS V14.01,2014-01-02 20:22:00,
2014-01-02 14:27:00,45.7,26.1,30.39,NNW,345,5.0,10.0,46,0.00,,SKC,0.00,VWS V14.01,2014-01-02 20:27:00,
2014-01-02 14:32:00,45.5,25.4,30.39,NNE,13,6.0,10.0,45,0.00,,SKC,0.00,VWS V14.01,2014-01-02 20:32:00,
2014-01-02 14:37:00,45.6,26.0,30.39,NW,314,6.0,11.0,46,0.00,,SKC,0.00,VWS V14.01,2014-01-02 20:37:00,
2014-01-02 14:42:00,45.8,26.2,30.39,NNW,340,5.0,9.0,46,0.00,,SKC,0.00,VWS V14.01,2014-01-02 20:42:00,
2014-01-02 14:47:00,45.9,25.8,30.39,NNW,331,9.0,12.0,45,0.00,,SKC,0.00,VWS V14.01,2014-01-02 20:47:00,
2014-01-02 14:52:00,46.2,26.0,30.39,North,355,6.0,10.0,45,0.00,,SKC,0.00,VWS V14.01,2014-01-02 20:52:00,
2014-01-02 14:57:00,46.2,26.0,30.39,NNE,23,6.0,13.0,45,0.00,,SKC,0.00,VWS V14.01,2014-01-02 20:57:00,
2014-01-02 15:02:00,46.0,25.9,30.39,NW,315,1.0,6.0,45,0.00,,SKC,0.00,VWS V14.01,2014-01-02 21:02:00,
2014-01-02 15:07:00,46.3,26.1,30.39,NNE,24,8.0,10.0,45,0.00,,SKC,0.00,VWS V14.01,2014-01-02 21:07:00,
2014-01-02 15:12:00,46.5,25.8,30.40,North,360,7.0,11.0,44,0.00,,SKC,0.00,VWS V14.01,2014-01-02 21:12:00,
2014-01-02 15:17:00,46.3,26.1,30.40,North,5,6.0,9.0,45,0.00,,SKC,0.00,VWS V14.01,2014-01-02 21:17:00,
2014-01-02 15:22:00,46.3,25.6,30.40,North,5,4.0,9.0,44,0.00,,SKC,0.00,VWS V14.01,2014-01-02 21:22:00,
2014-01-02 15:27:00,46.1,26.0,30.40,NNE,13,8.0,10.0,45,0.00,,SKC,0.00,VWS V14.01,2014-01-02 21:27:00,
2014-01-02 15:32:00,45.9,25.8,30.40,North,355,3.0,8.0,45,0.00,,SKC,0.00,VWS V14.01,2014-01-02 21:32:00,
2014-01-02 15:37:00,46.3,26.1,30.40,North,5,9.0,9.0,45,0.00,,SKC,0.00,VWS V14.01,2014-01-02 21:37:00,
2014-01-02 15:42:00,46.3,25.6,30.40,NW,311,6.0,8.0,44,0.00,,SKC,0.00,VWS V14.01,2014-01-02 21:42:00,
2014-01-02 15:47:00,46.2,25.5,30.40,North,360,5.0,7.0,44,0.00,,SKC,0.00,VWS V14.01,2014-01-02 21:47:00,
2014-01-02 15:52:00,46.3,25.0,30.40,NNW,340,4.0,10.0,43,0.00,,SKC,0.00,VWS V14.01,2014-01-02 21:52:00,
2014-01-02 15:57:00,46.4,25.7,30.41,NNE,16,3.0,5.0,44,0.00,,SKC,0.00,VWS V14.01,2014-01-02 21:57:00,
2014-01-02 16:02:00,46.2,25.5,30.41,NNW,342,3.0,9.0,44,0.00,,SKC,0.00,VWS V14.01,2014-01-02 22:02:00,
2014-01-02 16:07:00,45.9,25.8,30.41,North,349,5.0,9.0,45,0.00,,SKC,0.00,VWS V14.01,2014-01-02 22:07:00,
2014-01-02 16:12:00,45.9,25.8,30.41,NNE,27,3.0,5.0,45,0.00,,SKC,0.00,VWS V14.01,2014-01-02 22:12:00,
2014-01-02 16:17:00,46.0,25.9,30.41,North,355,6.0,12.0,45,0.00,,SKC,0.00,VWS V14.01,2014-01-02 22:17:00,
2014-01-02 16:22:00,45.8,25.7,30.41,North,9,6.0,7.0,45,0.00,,SKC,0.00,VWS V14.01,2014-01-02 22:22:00,
2014-01-02 16:27:00,45.7,25.6,30.41,NNE,30,5.0,9.0,45,0.00,,SKC,0.00,VWS V14.01,2014-01-02 22:27:00,
2014-01-02 16:32:00,45.8,25.7,30.41,NNW,346,5.0,10.0,45,0.00,,SKC,0.00,VWS V14.01,2014-01-02 22:32:00,
2014-01-02 16:37:00,45.7,25.6,30.41,North,9,5.0,6.0,45,0.00,,SKC,0.00,VWS V14.01,2014-01-02 22:37:00,
2014-01-02 16:42:00,45.5,26.5,30.41,NNE,22,5.0,7.0,47,0.00,,SKC,0.00,VWS V14.01,2014-01-02 22:42:00,
2014-01-02 16:47:00,45.2,24.6,30.41,North,360,8.0,12.0,44,0.00,,SKC,0.00,VWS V14.01,2014-01-02 22:47:00,
2014-01-02 16:52:00,44.9,24.9,30.41,North,11,7.0,13.0,45,0.00,,SKC,0.00,VWS V14.01,2014-01-02 22:52:00,
2014-01-02 16:57:00,44.6,24.6,30.41,North,355,4.0,4.0,45,0.00,,SKC,0.00,VWS V14.01,2014-01-02 22:57:00,
2014-01-02 17:02:00,44.5,25.0,30.41,North,360,5.0,7.0,46,0.00,,SKC,0.00,VWS V14.01,2014-01-02 23:02:00,
2014-01-02 17:07:00,44.4,24.9,30.41,North,355,6.0,10.0,46,0.00,,SKC,0.00,VWS V14.01,2014-01-02 23:07:00,
2014-01-02 17:12:00,44.2,24.8,30.41,North,5,6.0,10.0,46,0.00,,SKC,0.00,VWS V14.01,2014-01-02 23:12:00,
2014-01-02 17:17:00,43.9,24.5,30.41,NNE,14,5.0,11.0,46,0.00,,SKC,0.00,VWS V14.01,2014-01-02 23:17:00,
2014-01-02 17:22:00,43.7,24.8,30.41,North,11,3.0,6.0,47,0.00,,SKC,0.00,VWS V14.01,2014-01-02 23:22:00,
2014-01-02 17:27:00,43.4,25.0,30.41,North,5,5.0,5.0,48,0.00,,SKC,0.00,VWS V14.01,2014-01-02 23:27:00,
2014-01-02 17:32:00,43.1,24.8,30.42,North,10,2.0,4.0,48,0.00,,SKC,0.00,VWS V14.01,2014-01-02 23:32:00,
2014-01-02 17:37:00,42.7,24.9,30.42,North,355,1.0,4.0,49,0.00,,SKC,0.00,VWS V14.01,2014-01-02 23:37:00,
2014-01-02 17:42:00,42.3,24.5,30.42,North,355,0.0,4.0,49,0.00,,SKC,0.00,VWS V14.01,2014-01-02 23:42:00,
2014-01-02 17:47:00,41.8,24.5,30.42,North,355,3.0,3.0,50,0.00,,SKC,0.00,VWS V14.01,2014-01-02 23:47:00,
2014-01-02 17:52:00,41.4,24.2,30.42,North,5,1.0,2.0,50,0.00,,SKC,0.00,VWS V14.01,2014-01-02 23:52:00,
2014-01-02 17:57:00,40.9,24.6,30.42,North,5,1.0,2.0,52,0.00,,SKC,0.00,VWS V14.01,2014-01-02 23:57:00,
2014-01-02 18:02:00,40.4,24.6,30.42,North,5,2.0,2.0,53,0.00,,SKC,0.00,VWS V14.01,2014-01-03 00:02:00,
2014-01-02 18:07:00,40.0,24.3,30.42,North,360,0.0,0.0,53,0.00,,SKC,0.00,VWS V14.01,2014-01-03 00:07:00,
2014-01-02 18:12:00,39.6,24.3,30.42,North,360,0.0,0.0,54,0.00,,SKC,0.00,VWS V14.01,2014-01-03 00:12:00,
2014-01-02 18:17:00,39.2,24.0,30.42,North,5,0.0,0.0,54,0.00,,SKC,0.00,VWS V14.01,2014-01-03 00:17:00,
2014-01-02 18:22:00,38.9,24.1,30.42,North,5,2.0,2.0,55,0.00,,SKC,0.00,VWS V14.01,2014-01-03 00:22:00,
2014-01-02 18:27:00,38.3,24.0,30.42,North,5,2.0,2.0,56,0.00,,SKC,0.00,VWS V14.01,2014-01-03 00:27:00,
2014-01-02 18:32:00,38.0,24.1,30.42,North,360,0.0,0.0,57,0.00,,SKC,0.00,VWS V14.01,2014-01-03 00:32:00,
2014-01-02 18:37:00,37.9,24.0,30.42,North,5,1.0,2.0,57,0.00,,SKC,0.00,VWS V14.01,2014-01-03 00:37:00,
2014-01-02 18:42:00,37.7,23.9,30.43,North,360,0.0,2.0,57,0.00,,SKC,0.00,VWS V14.01,2014-01-03 00:42:00,
2014-01-02 18:47:00,37.4,23.6,30.43,North,5,1.0,2.0,57,0.00,,SKC,0.00,VWS V14.01,2014-01-03 00:47:00,
2014-01-02 18:52:00,37.3,23.9,30.43,North,5,0.0,2.0,58,0.00,,SKC,0.00,VWS V14.01,2014-01-03 00:52:00,
2014-01-02 18:57:00,37.0,23.6,30.43,North,5,0.0,0.0,58,0.00,,SKC,0.00,VWS V14.01,2014-01-03 00:57:00,
2014-01-02 19:02:00,35.7,22.8,30.43,North,360,0.0,0.0,59,0.00,,SKC,0.00,VWS V14.01,2014-01-03 01:02:00,
2014-01-02 19:07:00,35.0,22.9,30.43,North,5,0.0,1.0,61,0.00,,SKC,0.00,VWS V14.01,2014-01-03 01:07:00,
2014-01-02 19:12:00,34.7,23.0,30.43,North,5,0.0,1.0,62,0.00,,SKC,0.00,VWS V14.01,2014-01-03 01:12:00,
2014-01-02 19:17:00,35.1,23.0,30.44,North,360,0.0,1.0,61,0.00,,SKC,0.00,VWS V14.01,2014-01-03 01:17:00,
2014-01-02 19:22:00,35.5,23.4,30.44,North,5,0.0,1.0,61,0.00,,SKC,0.00,VWS V14.01,2014-01-03 01:22:00,
2014-01-02 19:27:00,35.8,23.7,30.44,North,5,0.0,1.0,61,0.00,,SKC,0.00,VWS V14.01,2014-01-03 01:27:00,
2014-01-02 19:32:00,35.6,23.5,30.44,North,5,2.0,2.0,61,0.00,,SKC,0.00,VWS V14.01,2014-01-03 01:32:00,
2014-01-02 19:37:00,35.5,23.4,30.44,North,360,0.0,0.0,61,0.00,,SKC,0.00,VWS V14.01,2014-01-03 01:37:00,
2014-01-02 19:42:00,35.3,23.2,30.44,North,5,0.0,0.0,61,0.00,,SKC,0.00,VWS V14.01,2014-01-03 01:42:00,
2014-01-02 19:47:00,34.4,22.4,30.44,North,5,0.0,0.0,61,0.00,,SKC,0.00,VWS V14.01,2014-01-03 01:47:00,
2014-01-02 19:52:00,33.5,22.3,30.44,North,5,1.0,2.0,63,0.00,,SKC,0.00,VWS V14.01,2014-01-03 01:52:00,
2014-01-02 19:57:00,32.9,22.1,30.45,North,360,0.0,2.0,64,0.00,,SKC,0.00,VWS V14.01,2014-01-03 01:57:00,
2014-01-02 20:02:00,32.6,22.1,30.45,North,360,0.0,1.0,65,0.00,,SKC,0.00,VWS V14.01,2014-01-03 02:02:00,
2014-01-02 20:07:00,32.6,22.1,30.45,North,5,1.0,2.0,65,0.00,,SKC,0.00,VWS V14.01,2014-01-03 02:07:00,
2014-01-02 20:12:00,32.6,22.1,30.45,North,5,0.0,0.0,65,0.00,,SKC,0.00,VWS V14.01,2014-01-03 02:12:00,
2014-01-02 20:17:00,32.7,22.6,30.45,North,5,1.0,2.0,66,0.00,,SKC,0.00,VWS V14.01,2014-01-03 02:17:00,
2014-01-02 20:22:00,32.9,22.4,30.45,North,360,0.0,2.0,65,0.00,,SKC,0.00,VWS V14.01,2014-01-03 02:22:00,
2014-01-02 20:27:00,33.0,22.5,30.45,North,360,0.0,1.0,65,0.00,,SKC,0.00,VWS V14.01,2014-01-03 02:27:00,
2014-01-02 20:32:00,33.0,22.5,30.45,North,5,0.0,0.0,65,0.00,,SKC,0.00,VWS V14.01,2014-01-03 02:32:00,
2014-01-02 20:37:00,32.9,22.4,30.45,North,5,0.0,0.0,65,0.00,,SKC,0.00,VWS V14.01,2014-01-03 02:37:00,
2014-01-02 20:42:00,32.9,22.4,30.45,North,5,0.0,0.0,65,0.00,,SKC,0.00,VWS V14.01,2014-01-03 02:42:00,
2014-01-02 20:47:00,32.7,22.2,30.45,North,360,0.0,0.0,65,0.00,,SKC,0.00,VWS V14.01,2014-01-03 02:47:00,
2014-01-02 20:52:00,32.6,22.1,30.45,North,5,0.0,0.0,65,0.00,,SKC,0.00,VWS V14.01,2014-01-03 02:52:00,
2014-01-02 20:57:00,32.4,22.0,30.45,North,5,0.0,0.0,65,0.00,,SKC,0.00,VWS V14.01,2014-01-03 02:57:00,
2014-01-02 21:02:00,32.4,22.3,30.45,North,360,0.0,1.0,66,0.00,,SKC,0.00,VWS V14.01,2014-01-03 03:02:00,
2014-01-02 21:07:00,32.4,22.0,30.45,North,360,0.0,0.0,65,0.00,,SKC,0.00,VWS V14.01,2014-01-03 03:07:00,
2014-01-02 21:12:00,32.3,22.2,30.45,North,360,0.0,0.0,66,0.00,,SKC,0.00,VWS V14.01,2014-01-03 03:12:00,
2014-01-02 21:17:00,32.4,22.3,30.45,North,360,1.0,1.0,66,0.00,,SKC,0.00,VWS V14.01,2014-01-03 03:17:00,
2014-01-02 21:22:00,32.2,21.8,30.45,North,355,0.0,2.0,65,0.00,,SKC,0.00,VWS V14.01,2014-01-03 03:22:00,
2014-01-02 21:27:00,31.9,21.9,30.45,North,355,1.0,2.0,66,0.00,,SKC,0.00,VWS V14.01,2014-01-03 03:27:00,
2014-01-02 21:32:00,31.4,21.7,30.46,North,355,0.0,2.0,67,0.00,,SKC,0.00,VWS V14.01,2014-01-03 03:32:00,
2014-01-02 21:37:00,31.0,21.3,30.46,North,355,0.0,0.0,67,0.00,,SKC,0.00,VWS V14.01,2014-01-03 03:37:00,
2014-01-02 21:42:00,30.7,21.4,30.45,North,355,0.0,1.0,68,0.00,,SKC,0.00,VWS V14.01,2014-01-03 03:42:00,
2014-01-02 21:47:00,31.0,21.7,30.45,North,355,1.0,1.0,68,0.00,,SKC,0.00,VWS V14.01,2014-01-03 03:47:00,
2014-01-02 21:52:00,31.2,21.9,30.45,North,355,1.0,2.0,68,0.00,,SKC,0.00,VWS V14.01,2014-01-03 03:52:00,
2014-01-02 21:57:00,31.3,22.0,30.45,North,355,0.0,0.0,68,0.00,,SKC,0.00,VWS V14.01,2014-01-03 03:57:00,
2014-01-02 22:02:00,31.4,22.1,30.45,North,355,0.0,2.0,68,0.00,,SKC,0.00,VWS V14.01,2014-01-03 04:02:00,
2014-01-02 22:07:00,31.5,21.8,30.46,North,355,1.0,1.0,67,0.00,,SKC,0.00,VWS V14.01,2014-01-03 04:07:00,
2014-01-02 22:12:00,31.5,21.8,30.46,North,355,1.0,2.0,67,0.00,,SKC,0.00,VWS V14.01,2014-01-03 04:12:00,
2014-01-02 22:17:00,31.4,21.7,30.46,North,355,0.0,0.0,67,0.00,,SKC,0.00,VWS V14.01,2014-01-03 04:17:00,
2014-01-02 22:22:00,31.2,21.5,30.46,North,355,0.0,0.0,67,0.00,,SKC,0.00,VWS V14.01,2014-01-03 04:22:00,
2014-01-02 22:27:00,30.8,21.5,30.46,North,355,2.0,3.0,68,0.00,,SKC,0.00,VWS V14.01,2014-01-03 04:27:00,
2014-01-02 22:32:00,31.1,21.8,30.46,NNW,348,0.0,1.0,68,0.00,,SKC,0.00,VWS V14.01,2014-01-03 04:32:00,
2014-01-02 22:37:00,31.1,21.4,30.46,NNW,348,0.0,0.0,67,0.00,,SKC,0.00,VWS V14.01,2014-01-03 04:37:00,
2014-01-02 22:42:00,31.0,21.3,30.46,NNW,348,0.0,0.0,67,0.00,,SKC,0.00,VWS V14.01,2014-01-03 04:42:00,
2014-01-02 22:47:00,30.8,21.1,30.46,NNW,348,0.0,0.0,67,0.00,,SKC,0.00,VWS V14.01,2014-01-03 04:47:00,
2014-01-02 22:52:00,30.6,21.3,30.46,NNW,348,0.0,0.0,68,0.00,,SKC,0.00,VWS V14.01,2014-01-03 04:52:00,
2014-01-02 22:57:00,30.5,21.2,30.46,NNW,348,0.0,0.0,68,0.00,,SKC,0.00,VWS V14.01,2014-01-03 04:57:00,
2014-01-02 23:01:00,30.5,21.2,30.46,NNW,348,0.0,0.0,68,0.00,,SKC,0.00,VWS V14.01,2014-01-03 05:01:00,
2014-01-02 23:02:00,30.5,21.2,30.46,NNW,348,0.0,0.0,68,0.00,,SKC,0.00,VWS V14.01,2014-01-03 05:02:00,
2014-01-02 23:07:00,30.4,21.1,30.46,NNW,348,1.0,1.0,68,0.00,,SKC,0.00,VWS V14.01,2014-01-03 05:07:00,
2014-01-02 23:12:00,29.8,20.5,30.46,NNW,345,1.0,1.0,68,0.00,,SKC,0.00,VWS V14.01,2014-01-03 05:12:00,
2014-01-02 23:17:00,29.4,20.5,30.46,NNW,345,1.0,1.0,69,0.00,,SKC,0.00,VWS V14.01,2014-01-03 05:17:00,
2014-01-02 23:22:00,29.0,20.5,30.46,NNW,345,2.0,2.0,70,0.00,,SKC,0.00,VWS V14.01,2014-01-03 05:22:00,
2014-01-02 23:27:00,29.0,20.5,30.46,NNW,345,0.0,0.0,70,0.00,,SKC,0.00,VWS V14.01,2014-01-03 05:27:00,
2014-01-02 23:32:00,28.8,20.6,30.46,NNW,345,1.0,2.0,71,0.00,,SKC,0.00,VWS V14.01,2014-01-03 05:32:00,
2014-01-02 23:37:00,28.7,20.8,30.46,NNW,345,0.0,0.0,72,0.00,,SKC,0.00,VWS V14.01,2014-01-03 05:37:00,
2014-01-02 23:42:00,28.6,20.4,30.46,NNW,345,0.0,1.0,71,0.00,,SKC,0.00,VWS V14.01,2014-01-03 05:42:00,
2014-01-02 23:47:00,28.7,20.8,30.46,NNW,345,2.0,3.0,72,0.00,,SKC,0.00,VWS V14.01,2014-01-03 05:47:00,
2014-01-02 23:52:00,28.6,20.4,30.46,NNW,345,0.0,0.0,71,0.00,,SKC,0.00,VWS V14.01,2014-01-03 05:52:00,
2014-01-02 23:57:00,28.3,20.4,30.46,NNW,345,0.0,0.0,72,0.00,,SKC,0.00,VWS V14.01,2014-01-03 05:57:00,